When you browse on this site, cookies collect data to enhance your experience and personalize the content and advertising you see.
Visit our Privacy Policy to learn more. By continuing to use the site, you agree to this use of cookies and data.
  • în România
  • Lista ţărilor
  • Pe 7 zile
  • Temperatura apei
  • Meteo pe hartă
  • Widget-uri
  • user-avatar
    Intrare

    Meteo pe oră la Maun

    Astăzi, 20 Ianuarie, Luni

    Timp Temperatura Precipitaţii Vânt Presiune Umiditate
    00:00 +29°C° 0 mm 2 m/s 678 mmHg 47%
    01:00 +29°C° 0 mm 2 m/s 678 mmHg 49%
    02:00 +28°C° 0 mm 2 m/s 678 mmHg 52%
    03:00 +28°C° 0 mm 1 m/s 678 mmHg 52%
    04:00 +28°C° 0 mm 1 m/s 678 mmHg 53%
    05:00 +28°C° 0 mm 1 m/s 677 mmHg 53%
    06:00 +28°C° 0 mm 2 m/s 678 mmHg 55%
    07:00 +28°C° 0 mm 4 m/s 679 mmHg 57%
    08:00 +29°C° 0 mm 5 m/s 680 mmHg 58%
    09:00 +30°C° 0 mm 5 m/s 680 mmHg 53%
    10:00 +33°C° 0 mm 4 m/s 681 mmHg 47%
    11:00 +35°C° 0 mm 3 m/s 681 mmHg 42%
    12:00 +35°C° 0 mm 3 m/s 680 mmHg 39%
    13:00 +36°C° 0 mm 3 m/s 680 mmHg 37%
    14:00 +36°C° 0 mm 2 m/s 679 mmHg 34%
    15:00 +36°C° 0 mm 2 m/s 679 mmHg 33%
    16:00 +36°C° 0 mm 2 m/s 679 mmHg 32%
    17:00 +36°C° 0 mm 3 m/s 678 mmHg 31%
    18:00 +35°C° 0 mm 3 m/s 678 mmHg 34%
    19:00 +33°C° 0 mm 3 m/s 679 mmHg 37%
    20:00 +31°C° 0 mm 3 m/s 679 mmHg 40%
    21:00 +30°C° 0 mm 4 m/s 679 mmHg 45%
    22:00 +29°C° 0 mm 4 m/s 680 mmHg 51%
    23:00 +28°C° 0 mm 5 m/s 680 mmHg 56%

    Mâine, 21 Ianuarie, Marţi

    Timp Temperatura Precipitaţii Vânt Presiune Umiditate
    00:00 +27°C° 0 mm 4 m/s 680 mmHg 59%
    01:00 +26°C° 0 mm 3 m/s 680 mmHg 62%
    02:00 +25°C° 0 mm 3 m/s 680 mmHg 64%
    03:00 +25°C° 0 mm 2 m/s 680 mmHg 67%
    04:00 +24°C° 0 mm 2 m/s 680 mmHg 69%
    05:00 +23°C° 0 mm 2 m/s 680 mmHg 71%
    06:00 +24°C° 0 mm 3 m/s 680 mmHg 69%
    07:00 +23°C° 0 mm 4 m/s 681 mmHg 67%
    08:00 +25°C° 0 mm 5 m/s 681 mmHg 65%
    09:00 +27°C° 0 mm 4 m/s 682 mmHg 58%
    10:00 +29°C° 0 mm 3 m/s 682 mmHg 51%
    11:00 +31°C° 0 mm 2 m/s 682 mmHg 44%
    12:00 +32°C° 0 mm 2 m/s 681 mmHg 39%
    13:00 +35°C° 0 mm 2 m/s 681 mmHg 34%
    14:00 +37°C° 0 mm 2 m/s 680 mmHg 29%
    15:00 +37°C° 0 mm 2 m/s 680 mmHg 28%
    16:00 +37°C° 0 mm 2 m/s 679 mmHg 26%
    17:00 +37°C° 0 mm 3 m/s 679 mmHg 25%
    18:00 +35°C° 0 mm 2 m/s 679 mmHg 28%
    19:00 +32°C° 0 mm 2 m/s 678 mmHg 32%
    20:00 +30°C° 0 mm 2 m/s 678 mmHg 36%
    21:00 +29°C° 0 mm 2 m/s 679 mmHg 39%
    22:00 +28°C° 0 mm 2 m/s 679 mmHg 42%
    23:00 +27°C° 0 mm 2 m/s 679 mmHg 45%

    Poimâine, 22 Ianuarie, Miercuri

    Timp Temperatura Precipitaţii Vânt Presiune Umiditate
    00:00 +27°C° 0 mm 1 m/s 679 mmHg 46%
    01:00 +26°C° 0 mm 1 m/s 679 mmHg 47%
    02:00 +26°C° 0 mm 1 m/s 679 mmHg 48%
    03:00 +25°C° 0 mm 1 m/s 678 mmHg 50%
    04:00 +25°C° 0 mm 1 m/s 678 mmHg 53%
    05:00 +24°C° 0 mm 1 m/s 678 mmHg 55%
    06:00 +25°C° 0 mm 2 m/s 679 mmHg 54%
    07:00 +26°C° 0 mm 2 m/s 679 mmHg 53%
    08:00 +27°C° 0 mm 3 m/s 680 mmHg 52%
    09:00 +29°C° 0 mm 3 m/s 680 mmHg 47%
    10:00 +33°C° 0 mm 3 m/s 681 mmHg 41%
    11:00 +35°C° 0 mm 3 m/s 681 mmHg 35%
    12:00 +36°C° 0 mm 3 m/s 680 mmHg 32%
    13:00 +38°C° 0 mm 2 m/s 680 mmHg 28%
    14:00 +39°C° 0 mm 2 m/s 679 mmHg 24%
    15:00 +37°C° 0 mm 1 m/s 678 mmHg 25%
    16:00 +36°C° 0 mm 1 m/s 678 mmHg 26%
    17:00 +36°C° 0 mm 1 m/s 677 mmHg 27%
    18:00 +34°C° 0 mm 1 m/s 677 mmHg 30%
    19:00 +32°C° 0 mm 1 m/s 677 mmHg 33%
    20:00 +30°C° 0 mm 1 m/s 677 mmHg 36%
    21:00 +30°C° 0 mm 1 m/s 677 mmHg 37%
    22:00 +29°C° 0 mm 2 m/s 678 mmHg 37%
    23:00 +29°C° 0 mm 2 m/s 678 mmHg 38%

    23 Ianuarie, Joi

    Timp Temperatura Precipitaţii Vânt Presiune Umiditate
    00:00 +28°C° 0 mm 2 m/s 678 mmHg 42%
    01:00 +27°C° 0 mm 1 m/s 677 mmHg 45%
    02:00 +26°C° 0 mm 1 m/s 677 mmHg 48%
    03:00 +26°C° 0 mm 1 m/s 677 mmHg 49%
    04:00 +25°C° 0 mm 1 m/s 677 mmHg 51%
    05:00 +23°C° 0 mm 0 m/s 677 mmHg 52%
    06:00 +26°C° 0 mm 1 m/s 678 mmHg 52%
    07:00 +27°C° 0 mm 2 m/s 678 mmHg 52%
    08:00 +28°C° 0 mm 4 m/s 679 mmHg 52%
    09:00 +30°C° 0 mm 4 m/s 679 mmHg 45%
    10:00 +34°C° 0 mm 4 m/s 680 mmHg 38%
    11:00 +37°C° 0 mm 4 m/s 680 mmHg 30%
    12:00 +37°C° 0 mm 3 m/s 679 mmHg 28%
    13:00 +38°C° 0 mm 3 m/s 679 mmHg 25%
    14:00 +39°C° 0 mm 2 m/s 678 mmHg 23%
    15:00 +38°C° 0 mm 2 m/s 678 mmHg 26%
    16:00 +36°C° 0 mm 2 m/s 677 mmHg 29%
    17:00 +35°C° 0 mm 2 m/s 676 mmHg 32%
    18:00 +34°C° 0 mm 2 m/s 677 mmHg 34%
    19:00 +32°C° 0 mm 2 m/s 677 mmHg 36%
    20:00 +30°C° 0 mm 2 m/s 677 mmHg 38%
    21:00 +30°C° 0.1 mm 2 m/s 678 mmHg 41%
    22:00 +29°C° 0.1 mm 2 m/s 678 mmHg 44%
    23:00 +28°C° 0.1 mm 2 m/s 678 mmHg 48%

    24 Ianuarie, Vineri

    Timp Temperatura Precipitaţii Vânt Presiune Umiditate
    00:00 +27°C° 0 mm 2 m/s 678 mmHg 50%
    01:00 +26°C° 0 mm 2 m/s 678 mmHg 52%
    02:00 +26°C° 0 mm 1 m/s 678 mmHg 54%
    03:00 +25°C° 0.1 mm 1 m/s 678 mmHg 57%
    04:00 +25°C° 0.1 mm 1 m/s 678 mmHg 60%
    05:00 +24°C° 0.1 mm 1 m/s 678 mmHg 63%
    06:00 +25°C° 0.1 mm 2 m/s 678 mmHg 62%
    07:00 +26°C° 0.1 mm 2 m/s 679 mmHg 60%
    08:00 +27°C° 0.1 mm 3 m/s 680 mmHg 58%
    09:00 +29°C° 0 mm 3 m/s 680 mmHg 52%
    10:00 +31°C° 0 mm 3 m/s 680 mmHg 46%
    11:00 +34°C° 0 mm 3 m/s 681 mmHg 40%
    12:00 +35°C° 0 mm 3 m/s 680 mmHg 38%
    13:00 +35°C° 0 mm 4 m/s 680 mmHg 36%
    14:00 +36°C° 0 mm 4 m/s 679 mmHg 34%
    15:00 +36°C° 0 mm 4 m/s 679 mmHg 33%
    16:00 +36°C° 0 mm 4 m/s 678 mmHg 32%
    17:00 +36°C° 0 mm 3 m/s 678 mmHg 31%
    18:00 +34°C° 0 mm 3 m/s 678 mmHg 35%
    19:00 +31°C° 0 mm 2 m/s 678 mmHg 40%
    20:00 +29°C° 0 mm 1 m/s 678 mmHg 44%
    21:00 +28°C° 0 mm 2 m/s 679 mmHg 48%
    22:00 +27°C° 0 mm 2 m/s 679 mmHg 52%
    23:00 +27°C° 0 mm 2 m/s 679 mmHg 56%

    25 Ianuarie, Sâmbătă

    Timp Temperatura Precipitaţii Vânt Presiune Umiditate
    00:00 +26°C° 0 mm 2 m/s 679 mmHg 59%
    01:00 +26°C° 0 mm 2 m/s 679 mmHg 61%
    02:00 +25°C° 0 mm 2 m/s 679 mmHg 63%
    03:00 +24°C° 0 mm 2 m/s 679 mmHg 65%
    04:00 +24°C° 0 mm 2 m/s 679 mmHg 66%
    05:00 +23°C° 0 mm 2 m/s 679 mmHg 67%
    06:00 +24°C° 0 mm 2 m/s 679 mmHg 62%
    07:00 +25°C° 0 mm 3 m/s 680 mmHg 57%
    08:00 +26°C° 0 mm 3 m/s 680 mmHg 51%
    09:00 +28°C° 0 mm 4 m/s 680 mmHg 45%
    10:00 +32°C° 0 mm 5 m/s 681 mmHg 39%
    11:00 +34°C° 0 mm 5 m/s 681 mmHg 33%
    12:00 +35°C° 0 mm 5 m/s 681 mmHg 29%
    13:00 +37°C° 0 mm 4 m/s 680 mmHg 25%
    14:00 +38°C° 0 mm 4 m/s 680 mmHg 21%
    15:00 +38°C° 0 mm 4 m/s 679 mmHg 22%
    16:00 +37°C° 0 mm 3 m/s 679 mmHg 22%
    17:00 +37°C° 0 mm 3 m/s 678 mmHg 23%
    18:00 +35°C° 0 mm 2 m/s 678 mmHg 26%
    19:00 +32°C° 0 mm 2 m/s 678 mmHg 30%
    20:00 +29°C° 0 mm 2 m/s 678 mmHg 33%
    21:00 +29°C° 0 mm 2 m/s 679 mmHg 36%
    22:00 +28°C° 0 mm 3 m/s 679 mmHg 38%
    23:00 +27°C° 0 mm 3 m/s 679 mmHg 41%
    Arată mai mult